Location: Rooftop Observatory
(39.0308°N, 87.1711°W)
Time: 08:38:20
(UTC-06:00)

Daily predictions for brighter satellites

Satellite Brightness Start Highest point End
(mag) Time Altitude Azimuth Time Altitude Azimuth Time Altitude Azimuth
Ariane Rocket 4.1 16:47:54 10° S 16:52:48 51° W 16:57:44 10° NNW
CORIOLIS 4.5 16:50:23 10° SE 16:55:27 43° ENE 17:00:32 10° N
Cosmos 1975 2.9 16:53:17 10° N 16:57:17 54° E 17:01:12 10° SSE
SL-8 Rocket 4.4 16:53:57 10° NNW 17:00:05 70° W 17:06:11 10° S
Cosmos 1812 3.1 16:59:15 10° SSW 17:03:05 66° W 17:06:56 10° N
Okean 1-7 Rocket 4.4 16:59:13 10° SSE 17:03:08 30° E 17:07:02 10° NNE
Tiangong 1 1.5 17:03:39 10° W 17:06:37 47° NNW 17:09:19 12° ENE
CZ-4 R/B 1.4 17:03:05 10° SSE 17:07:14 79° ENE 17:11:21 10° N
MOS 1 4.3 17:02:13 10° SSE 17:07:49 69° ENE 17:13:26 10° N
SPOT 3 Rocket 3.5 17:06:33 10° SSE 17:11:41 71° ENE 17:16:51 10° N
MSX 4.0 17:06:42 10° SE 17:12:11 48° ENE 17:17:42 10° N
Meteor 1-12 Rocket 4.5 17:06:26 10° N 17:12:18 83° W 17:18:14 10° S
COSMOS 2487 2.4 17:09:17 10° NNW 17:12:53 81° ENE 17:16:28 10° SSE
Cosmos 2366 rocket 4.3 17:07:58 10° N 17:14:17 75° W 17:20:31 10° S
AQUARIUS 4.1 17:12:39 10° SSE 17:17:08 78° ENE 17:21:38 10° N
Meteor 2-21 4.4 17:11:21 10° N 17:17:29 65° E 17:23:32 10° SSE
USA 116 4.5 17:12:57 10° NNE 17:18:18 87° WNW 17:23:15 10° SSW
NOSS 2-1 (D) 3.3 17:21:38 10° SSW 17:25:26 89° WNW 17:29:25 11° NNE
Cosmos 2297 3.8 17:19:56 10° SSW 17:25:34 82° WNW 17:31:15 10° NNE
NOSS 2-1 (C) 3.3 17:22:17 10° SSW 17:26:07 90° ESE 17:30:04 12° NNE
COSMO-SKYMED 1 2.9 17:28:45 10° NNE 17:32:54 43° E 17:37:02 10° S
CZ-3A R/B 4.5 17:28:21 10° WNW 17:34:05 43° N 17:55:09 15° ENE
Cosmos 2278 Rocket 3.7 17:29:02 10° WSW 17:34:06 34° WNW 17:39:13 10° N
Meteor 2-14 Rocket 4.4 17:28:27 10° N 17:34:34 65° E 17:40:38 10° SSE
Cosmos 921 Rocket 3.1 17:31:59 10° SSW 17:36:13 78° WNW 17:40:35 10° NNE
NOSS 7 (D) 4.4 17:33:14 10° SSW 17:36:47 64° ESE 17:38:43 22° NE
Cosmos 1025 Rocket 3.3 17:33:48 10° SSE 17:37:59 46° E 17:42:12 10° NNE
Abrixas 2.6 17:35:51 10° WNW 17:38:47 70° SW 17:41:15 14° SE
Cosmos 1666 3.3 17:35:34 10° NNE 17:39:07 33° ENE 17:42:38 10° SE
IDEFIX/ARIANE 42P 3.2 17:38:00 10° S 17:43:07 60° W 17:48:15 10° NNW
Cosmos 1346 Rocket 4.0 17:40:14 10° SSW 17:43:55 41° WNW 17:47:37 10° N
NOSS 2-1 (E) 3.7 17:41:01 10° SW 17:44:50 63° NW 17:48:15 15° NNE
BREEZE-M DEB (TANK) 4.2 17:43:54 10° NNW 17:44:52 12° N 17:45:01 12° N
Thor Agena Rocket 4.3 17:40:26 10° N 17:45:31 53° WNW 17:50:38 10° SSW
Cosmos 1821 Rocket 3.9 17:41:29 10° N 17:47:31 61° E 17:53:32 10° SSE
Cosmos 1833 Rocket 2.7 17:45:46 10° NNW 17:51:25 86° WSW 17:57:02 10° SSE
YAOGAN 1 3.9 17:51:07 10° S 17:55:13 42° W 17:59:20 10° NNW
CZ-3B DEB 3.8 17:53:41 10° WNW 17:57:57 32° N 18:04:31 16° NE
Cosmos 1605 Rocket 4.3 17:52:20 10° N 17:58:14 41° ENE 18:04:01 10° SSE
DMSP B5D1-3 4.5 17:54:34 10° NNE 17:59:42 64° ESE 18:04:46 10° S
Meteor 2-16 Rocket 4.4 17:54:10 10° N 18:00:17 87° W 18:06:22 10° S
Cosmos 2082 Rocket 2.8 17:55:14 10° NNW 18:00:49 61° WSW 18:06:24 10° S
USA 234 3.7 17:56:14 16° NE 18:01:25 57° NW 18:07:45 10° WSW
Cosmos 1743 3.4 17:59:26 10° NNW 18:03:14 57° W 18:06:59 10° S
CZ-2C R/B 4.2 18:00:21 10° SSW 18:04:55 35° W 18:09:37 10° NNW
Intercosmos 25 4.0 18:04:20 10° NNW 18:07:22 47° W 18:10:56 10° S
Meteor 1-28 Rocket 3.1 18:06:28 44° NE 18:07:27 63° E 18:11:11 10° S
BREEZE M DEB (TANK) 3.0 18:04:42 10° WSW 18:12:16 52° NW 18:13:17 38° NNE
Cosmos 1484 Rocket 3.8 18:15:56 10° S 18:19:30 44° W 18:23:05 10° NNW
NOSS 3-4 (A) 3.7 18:13:03 10° NNW 18:20:10 85° ENE 18:27:41 10° SE
NOSS 3-4 (C) 3.7 18:13:09 10° NNW 18:20:15 84° ENE 18:27:47 10° SE
SKYMED 2 4.3 18:16:43 10° N 18:20:57 52° WNW 18:25:09 10° SSW
Delta 2 Rocket 3.8 18:17:49 10° W 18:21:22 46° S 18:21:53 43° SSE
Cosmos 407 Rocket 3.3 18:19:52 10° NNW 18:25:01 71° ENE 18:30:10 10° SSE
Cosmos 2056 Rocket 3.9 18:20:41 10° SSW 18:25:59 62° WNW 18:29:42 20° N
BREEZE M DEB (TANK) 3.8 18:25:11 10° NW 18:29:23 63° NE 18:34:22 31° ESE
Okean 2 3.7 18:27:51 10° SSW 18:31:59 66° W 18:33:20 40° NNW
Cosmos 1892 Rocket 3.7 18:30:17 10° SSW 18:34:37 70° W 18:35:54 43° NNW
Cosmos 1727 Rocket 3.8 18:29:14 10° S 18:35:24 71° E 18:38:31 31° NNE
Cosmos 676 Rocket 4.2 18:31:20 10° NNW 18:35:31 52° NNE 18:35:31 52° NNE
Cosmos 2369 Rocket 2.2 18:31:34 10° S 18:36:50 56° ESE 18:36:50 56° ESE
Meteor 1-15 Rocket 4.4 18:33:45 10° NNW 18:39:38 75° W 18:45:22 10° S
NOAA 12 4.1 18:34:54 10° S 18:40:10 77° WSW 18:45:27 10° NNW
Cosmos 1726 Rocket 4.1 18:37:42 10° NNW 18:42:06 59° W 18:46:29 10° S
Tiangong 1 3.8 18:40:12 10° WNW 18:41:00 16° WNW 18:41:00 16° WNW
FALCON 9 R/B 3.3 18:24:59 10° W 18:46:44 69° S 18:49:07 46° ESE
Cosmos 1340 4.3 18:51:25 10° SSW 18:53:52 32° WSW 18:53:52 32° WSW
ATLAS 3B CENTAUR R/B 4.2 18:38:13 10° W 18:56:16 43° SSW 19:00:26 27° SSE
Cosmos 1943 Rocket 4.3 19:00:21 10° S 19:01:06 14° S 19:01:06 14° S
Cosmos 1452 Rocket 4.2 19:09:47 10° SW 19:14:16 50° W 19:14:16 50° W
